This is the latest recevied weather packets stored in our database for station/object WA6TJQ. If no packets are shown the sender has not sent any weather packets the latest 10 day(s).
| Time | Temp. | Humidity | Pressure | Rain* | Wind** | Luminosity | Snow |
|---|---|---|---|---|---|---|---|
| 1777579316 | 18.33° C | 31% | 1008.8 hPa | 0 mm | - | - | - |
| 1777579016 | 18.33° C | 29% | 1008.7 hPa | 0 mm | - | - | - |
| 1777578716 | 17.78° C | 33% | 1008.8 hPa | 0 mm | - | - | - |
| 1777578416 | 17.78° C | 29% | 1008.9 hPa | 0 mm | - | - | - |
| 1777578116 | 17.78° C | 33% | 1008.9 hPa | 0 mm | - | - | - |
| 1777577816 | 17.78° C | 33% | 1009.1 hPa | 0 mm | - | - | - |
| 1777577516 | 17.78° C | 33% | 1009.1 hPa | 0 mm | - | - | - |
| 1777577216 | 17.78° C | 31% | 1009.2 hPa | 0 mm | - | - | - |
| 1777576916 | 17.78° C | 34% | 1009.1 hPa | 0 mm | - | - | - |
| 1777576616 | 17.22° C | 34% | 1009.2 hPa | 0 mm | - | - | - |
| 1777576316 | 17.22° C | 33% | 1009.3 hPa | 0 mm | - | - | - |
| 1777576016 | 17.22° C | 34% | 1009.3 hPa | 0 mm | - | - | - |
| 1777575716 | 16.67° C | 35% | 1009.4 hPa | 0 mm | - | - | - |
| 1777575416 | 16.67° C | 33% | 1009.5 hPa | 0 mm | - | - | - |
| 1777575116 | 16.67° C | 34% | 1009.4 hPa | 0 mm | - | - | - |
| 1777574816 | 16.11° C | 35% | 1009.5 hPa | 0 mm | - | - | - |
| 1777574516 | 16.11° C | 36% | 1009.6 hPa | 0 mm | - | - | - |
| 1777574215 | 16.11° C | 39% | 1009.6 hPa | 0 mm | - | - | - |
| 1777573915 | 15.56° C | 36% | 1009.5 hPa | 0 mm | - | - | - |
| 1777573615 | 15.56° C | 37% | 1009.5 hPa | 0 mm | - | - | - |
| 1777573315 | 15.56° C | 39% | 1009.5 hPa | 0 mm | - | - | - |
| 1777573075 | 15° C | 38% | 1009.6 hPa | 0 mm | - | - | - |
| 1777572715 | 15° C | 38% | 1009.7 hPa | 0 mm | - | - | - |
| 1777572415 | 14.44° C | 41% | 1009.6 hPa | 0 mm | - | - | - |
| 1777572115 | 14.44° C | 40% | 1009.5 hPa | 0 mm | - | - | - |
* Rain latest hour (hover to see other rain measurements)
** Current wind speed in m/s (hover to see current wind gust speed)